Weather in Vozdvizhenskoye

Russia / Yaroslavl Oblast     57°23′21″N   38°03′27″E
temp.,
°C
wind,
m/s
gust,
m/s
humid.,
%
clouds,
%
prec.,
mm/h
press.,
hPa
HPBL,
m
12 august, fri
fri1200:00+14sw337281 0.0 102540
03:00+13wsw3476100 0.0 102562
06:00+13wsw3577100 0.0 1025115
09:00+19w3560100 0.0 1025380
12:00+23w4547100 0.0 10241116
15:00+25w5643100 0.0 10231416
18:00+24w365592 0.0 1022389
21:00+18wnw2274100 0.0 102323
13 august, sat
sat1300:00+16wnw2276100 0.0 102319
03:00+15wnw2281100 0.0 102314
06:00+15w2282100 0.0 102329
09:00+21w2263100 0.0 1023355
12:00+25w225274 0.0 10221132
15:00+26wsw2246100 0.0 10211505
18:00+24sw2258100 0.0 102064
21:00+19sw226798 0.0 102011
14 august, sun
sun1400:00+17wsw1173100 0.0 102111
03:00+16sw1178100 0.0 102011
06:00+16sw11803 0.0 102111
09:00+23sw115934 0.0 1021365
12:00+27w014734 0.0 10201402
15:00+28nw11423 0.0 10191932
18:00+27nw125014 0.0 1019227
21:00+20ne237112 0.0 102026
15 august, mon
mon1500:00+18ene22775 0.0 102021
03:00+17ene22792 0.0 102111
06:00+17ene22795 0.0 102122
09:00+24ene23565 0.0 1021390
12:00+28ese22411 0.0 10211747
15:00+30sse023637 0.0 10212400
18:00+26e235198 0.0 1021152
21:00+23ene385816 0.0 1021175
16 august, tue
tue1600:00+20ese396297 0.0 1022178
03:00+20ese366563 0.0 1023126
06:00+20ese376498 0.0 1023183
09:00+24se465394 0.0 1024398
12:00+28se57375 0.0 10231920
15:00+29se563316 0.0 10222651
18:00+27ese364212 0.0 1022555
21:00+21ese4106254 0.0 1022216